カタログに戻る

STARLINK-5352

運用中通信VLEO
NORAD 56426·PAYLOAD·🇺🇸 United States

打ち上げ May 4, 2023 から Cape Canaveral Space Force Station

Loading…

次のパス (今後24時間)

TLE

最新Source: CelesTrak SupGP

元期: Sep 14, 2026, 22:10 UTC

1 56426C 23061BE  26257.92409722 -.00021874  00000+0 -79241-3 0  2578
2 56426  42.9998 191.1812 0001296 246.7413 223.8857 15.27584290    13

AllMySatでSTARLINK-5352をリアルタイム追跡

Download on the App Store